User: anonymous   Login
Location: Unspecified
(0.0000°N, 0.0000°E)
Time: 02:02:46
(UTC+00:00)
Language:

TBA - TO BE ASSIGNED - Orbit

View from above orbital plane
View from above orbital plane
View from above satellite
View from above satellite

Ground track
Ground track

The orbit is defined by the following mean orbital elements,

1 68901U          26145.49176193 +.00000000 +00000-0 +78156-3 0 00005
2 68901  97.2831 341.2632 0002277  97.7195 262.4315 15.49222659    01
Epoch (UTC): 25 May 2026 11:48:08
Eccentricity: 0.0002277
inclination: 97.2831°
perigee height: 417 km
apogee height: 421 km
right ascension of ascending node: 341.2632°
argument of perigee: 97.7195°
revolutions per day: 15.49222659
mean anomaly at epoch: 262.4315°

The dashed part of the orbit path shows where the satellite is in the earth's shadow,  

DLR